Time,TemperatureF,DewpointF,PressureIn,WindDirection,WindDirectionDegrees,WindSpeedMPH,WindSpeedGustMPH,Humidity,HourlyPrecipIn,Conditions,Clouds,dailyrainin,SolarRadiationWatts/m^2,SoftwareType,DateUTC
2013-03-04 00:00:00,22.9,12.2,29.89,West,272,3.0,0.0,63,0.00,,,0.00,0,WeatherTracker,2013-03-04 05:00:00,
2013-03-04 00:01:00,23.0,12.3,29.89,SW,234,1.0,0.0,63,0.00,,,0.00,0,WeatherTracker,2013-03-04 05:01:00,
2013-03-04 00:06:00,23.1,12.4,29.89,NW,309,2.0,0.0,63,0.00,,,0.00,0,WeatherTracker,2013-03-04 05:06:00,
2013-03-04 00:11:00,23.3,12.2,29.90,NE,41,0.0,0.0,62,0.00,,,0.00,0,WeatherTracker,2013-03-04 05:11:00,
2013-03-04 00:16:00,23.2,12.5,29.89,NE,45,1.0,0.0,63,0.00,,,0.00,0,WeatherTracker,2013-03-04 05:16:00,
2013-03-04 00:21:00,23.2,12.1,29.89,NNW,348,4.0,0.0,62,0.00,,,0.00,0,WeatherTracker,2013-03-04 05:21:00,
2013-03-04 00:26:00,23.2,12.5,29.89,NW,326,0.0,0.0,63,0.00,,,0.00,0,WeatherTracker,2013-03-04 05:26:00,
2013-03-04 00:32:00,23.2,12.1,29.90,NE,54,1.0,0.0,62,0.00,,,0.00,0,WeatherTracker,2013-03-04 05:32:00,
2013-03-04 00:37:00,23.2,12.5,29.90,North,360,0.0,0.0,63,0.00,,,0.00,0,WeatherTracker,2013-03-04 05:37:00,
2013-03-04 00:42:00,23.1,12.4,29.90,NE,40,0.0,0.0,63,0.00,,,0.00,0,WeatherTracker,2013-03-04 05:42:00,
2013-03-04 00:47:00,22.9,12.2,29.91,East,90,1.0,0.0,63,0.00,,,0.00,0,WeatherTracker,2013-03-04 05:47:00,
2013-03-04 00:52:00,22.7,12.7,29.91,WSW,247,1.0,0.0,65,0.00,,,0.00,0,WeatherTracker,2013-03-04 05:52:00,
2013-03-04 00:57:00,22.3,12.7,29.91,SSW,198,1.0,0.0,66,0.00,,,0.00,0,WeatherTracker,2013-03-04 05:57:00,
2013-03-04 01:02:00,22.0,12.7,29.91,SW,230,0.0,0.0,67,0.00,,,0.00,0,WeatherTracker,2013-03-04 06:02:00,
2013-03-04 01:07:00,21.8,12.9,29.91,SW,231,0.0,0.0,68,0.00,,,0.00,0,WeatherTracker,2013-03-04 06:07:00,
2013-03-04 01:12:00,21.5,12.6,29.92,SW,230,0.0,0.0,68,0.00,,,0.00,0,WeatherTracker,2013-03-04 06:12:00,
2013-03-04 01:17:00,21.3,13.1,29.92,SW,231,0.0,0.0,70,0.00,,,0.00,0,WeatherTracker,2013-03-04 06:17:00,
2013-03-04 01:22:00,21.1,12.9,29.93,SW,231,0.0,0.0,70,0.00,,,0.00,0,WeatherTracker,2013-03-04 06:22:00,
2013-03-04 01:27:00,21.0,12.5,29.93,SW,230,2.0,0.0,69,0.00,,,0.00,0,WeatherTracker,2013-03-04 06:27:00,
2013-03-04 01:32:00,20.9,13.0,29.93,SW,230,0.0,0.0,71,0.00,,,0.00,0,WeatherTracker,2013-03-04 06:32:00,
2013-03-04 01:37:00,20.8,12.6,29.93,SW,227,0.0,0.0,70,0.00,,,0.00,0,WeatherTracker,2013-03-04 06:37:00,
2013-03-04 01:42:00,20.8,12.6,29.93,SW,227,0.0,0.0,70,0.00,,,0.00,0,WeatherTracker,2013-03-04 06:42:00,
2013-03-04 01:47:00,20.8,12.9,29.93,SW,227,0.0,0.0,71,0.00,,,0.00,0,WeatherTracker,2013-03-04 06:47:00,
2013-03-04 01:52:00,20.7,12.5,29.93,SW,224,0.0,0.0,70,0.00,,,0.00,0,WeatherTracker,2013-03-04 06:52:00,
2013-03-04 01:58:00,20.6,12.7,29.93,SW,224,0.0,0.0,71,0.00,,,0.00,0,WeatherTracker,2013-03-04 06:58:00,
2013-03-04 02:03:00,20.6,13.0,29.93,SW,224,0.0,0.0,72,0.00,,,0.00,0,WeatherTracker,2013-03-04 07:03:00,
2013-03-04 02:08:00,20.5,12.9,29.93,SW,224,0.0,0.0,72,0.00,,,0.00,0,WeatherTracker,2013-03-04 07:08:00,
2013-03-04 02:13:00,20.4,12.5,29.93,SW,223,0.0,0.0,71,0.00,,,0.00,0,WeatherTracker,2013-03-04 07:13:00,
2013-03-04 02:18:00,20.4,13.1,29.93,SW,224,0.0,0.0,73,0.00,,,0.00,0,WeatherTracker,2013-03-04 07:18:00,
2013-03-04 02:23:00,20.4,12.8,29.93,SW,223,0.0,0.0,72,0.00,,,0.00,0,WeatherTracker,2013-03-04 07:23:00,
2013-03-04 02:28:00,20.4,12.8,29.94,SW,224,0.0,0.0,72,0.00,,,0.00,0,WeatherTracker,2013-03-04 07:28:00,
2013-03-04 02:33:00,20.6,12.7,29.94,East,81,0.0,0.0,71,0.00,,,0.00,0,WeatherTracker,2013-03-04 07:33:00,
2013-03-04 02:38:00,20.7,12.8,29.94,SSE,163,1.0,0.0,71,0.00,,,0.00,0,WeatherTracker,2013-03-04 07:38:00,
2013-03-04 02:43:00,20.6,13.0,29.94,South,183,0.0,0.0,72,0.00,,,0.00,0,WeatherTracker,2013-03-04 07:43:00,
2013-03-04 02:48:00,20.4,13.1,29.94,SE,127,1.0,0.0,73,0.00,,,0.00,0,WeatherTracker,2013-03-04 07:48:00,
2013-03-04 02:53:00,20.6,13.3,29.94,NNE,19,0.0,0.0,73,0.00,,,0.00,0,WeatherTracker,2013-03-04 07:53:00,
2013-03-04 02:58:00,20.5,12.6,29.94,ENE,61,0.0,0.0,71,0.00,,,0.00,0,WeatherTracker,2013-03-04 07:58:00,
2013-03-04 03:03:00,20.8,13.5,29.94,ENE,63,0.0,0.0,73,0.00,,,0.00,0,WeatherTracker,2013-03-04 08:03:00,
2013-03-04 03:08:00,20.7,13.4,29.94,ENE,71,0.0,0.0,73,0.00,,,0.00,0,WeatherTracker,2013-03-04 08:08:00,
2013-03-04 03:13:00,20.5,12.9,29.95,West,278,0.0,0.0,72,0.00,,,0.00,0,WeatherTracker,2013-03-04 08:13:00,
2013-03-04 03:18:00,20.4,13.1,29.95,West,278,0.0,0.0,73,0.00,,,0.00,0,WeatherTracker,2013-03-04 08:18:00,
2013-03-04 03:23:00,20.2,13.0,29.95,West,278,0.0,0.0,73,0.00,,,0.00,0,WeatherTracker,2013-03-04 08:23:00,
2013-03-04 03:28:00,20.1,13.2,29.95,West,278,0.0,0.0,74,0.00,,,0.00,0,WeatherTracker,2013-03-04 08:28:00,
2013-03-04 03:34:00,19.9,13.3,29.95,West,277,0.0,0.0,75,0.00,,,0.00,0,WeatherTracker,2013-03-04 08:34:00,
2013-03-04 03:39:00,19.7,13.4,29.95,WSW,244,0.0,0.0,76,0.00,,,0.00,0,WeatherTracker,2013-03-04 08:39:00,
2013-03-04 03:44:00,19.6,13.3,29.95,WSW,244,0.0,0.0,76,0.00,,,0.00,0,WeatherTracker,2013-03-04 08:44:00,
2013-03-04 03:49:00,19.4,12.8,29.95,WSW,244,0.0,0.0,75,0.00,,,0.00,0,WeatherTracker,2013-03-04 08:49:00,
2013-03-04 03:54:00,19.3,13.0,29.96,WSW,244,0.0,0.0,76,0.00,,,0.00,0,WeatherTracker,2013-03-04 08:54:00,
2013-03-04 03:59:00,19.1,13.1,29.96,WSW,244,0.0,0.0,77,0.00,,,0.00,0,WeatherTracker,2013-03-04 08:59:00,
2013-03-04 04:04:00,19.1,13.1,29.96,WSW,244,0.0,0.0,77,0.00,,,0.00,0,WeatherTracker,2013-03-04 09:04:00,
2013-03-04 04:09:00,19.0,13.0,29.95,WSW,244,0.0,0.0,77,0.00,,,0.00,0,WeatherTracker,2013-03-04 09:09:00,
2013-03-04 04:14:00,19.0,13.0,29.95,South,174,0.0,0.0,77,0.00,,,0.00,0,WeatherTracker,2013-03-04 09:14:00,
2013-03-04 04:19:00,18.9,13.2,29.96,South,173,0.0,0.0,78,0.00,,,0.00,0,WeatherTracker,2013-03-04 09:19:00,
2013-03-04 04:24:00,18.9,13.2,29.96,South,173,0.0,0.0,78,0.00,,,0.00,0,WeatherTracker,2013-03-04 09:24:00,
2013-03-04 04:29:00,18.9,13.2,29.96,South,174,0.0,0.0,78,0.00,,,0.00,0,WeatherTracker,2013-03-04 09:29:00,
2013-03-04 04:34:00,18.9,12.9,29.96,South,173,0.0,0.0,77,0.00,,,0.00,0,WeatherTracker,2013-03-04 09:34:00,
2013-03-04 04:39:00,19.0,13.3,29.96,South,174,0.0,0.0,78,0.00,,,0.00,0,WeatherTracker,2013-03-04 09:39:00,
2013-03-04 04:44:00,19.0,13.0,29.97,South,175,0.0,0.0,77,0.00,,,0.00,0,WeatherTracker,2013-03-04 09:44:00,
2013-03-04 04:49:00,18.9,12.9,29.97,South,175,0.0,0.0,77,0.00,,,0.00,0,WeatherTracker,2013-03-04 09:49:00,
2013-03-04 04:54:00,18.9,13.2,29.97,South,175,0.0,0.0,78,0.00,,,0.00,0,WeatherTracker,2013-03-04 09:54:00,
2013-03-04 04:59:00,18.9,13.2,29.98,South,175,0.0,0.0,78,0.00,,,0.00,0,WeatherTracker,2013-03-04 09:59:00,
2013-03-04 05:04:00,18.9,13.5,29.98,South,175,0.0,0.0,79,0.00,,,0.00,0,WeatherTracker,2013-03-04 10:04:00,
2013-03-04 05:09:00,18.9,13.5,29.98,South,175,0.0,0.0,79,0.00,,,0.00,0,WeatherTracker,2013-03-04 10:09:00,
2013-03-04 05:14:00,18.9,13.5,29.98,South,175,0.0,0.0,79,0.00,,,0.00,0,WeatherTracker,2013-03-04 10:14:00,
2013-03-04 05:19:00,19.0,13.9,29.98,South,175,0.0,0.0,80,0.00,,,0.00,0,WeatherTracker,2013-03-04 10:19:00,
2013-03-04 05:25:00,19.0,13.9,29.99,South,175,0.0,0.0,80,0.00,,,0.00,0,WeatherTracker,2013-03-04 10:25:00,
2013-03-04 05:30:00,19.0,13.6,29.99,South,175,0.0,0.0,79,0.00,,,0.00,0,WeatherTracker,2013-03-04 10:30:00,
2013-03-04 05:35:00,18.9,13.5,29.99,South,175,0.0,0.0,79,0.00,,,0.00,0,WeatherTracker,2013-03-04 10:35:00,
2013-03-04 05:40:00,18.9,13.8,29.99,South,175,0.0,0.0,80,0.00,,,0.00,0,WeatherTracker,2013-03-04 10:40:00,
2013-03-04 05:45:00,18.8,13.7,29.99,South,175,0.0,0.0,80,0.00,,,0.00,0,WeatherTracker,2013-03-04 10:45:00,
2013-03-04 05:50:00,18.8,13.7,29.99,South,175,0.0,0.0,80,0.00,,,0.00,0,WeatherTracker,2013-03-04 10:50:00,
2013-03-04 05:55:00,18.8,13.7,29.99,South,175,0.0,0.0,80,0.00,,,0.00,0,WeatherTracker,2013-03-04 10:55:00,
2013-03-04 06:00:00,18.7,13.6,29.99,South,175,0.0,0.0,80,0.00,,,0.00,0,WeatherTracker,2013-03-04 11:00:00,
2013-03-04 06:05:00,18.6,13.8,30.00,South,175,0.0,0.0,81,0.00,,,0.00,0,WeatherTracker,2013-03-04 11:05:00,
2013-03-04 06:10:00,18.6,13.5,30.00,South,175,0.0,0.0,80,0.00,,,0.00,0,WeatherTracker,2013-03-04 11:10:00,
2013-03-04 06:15:00,18.6,13.5,30.01,South,175,0.0,0.0,80,0.00,,,0.00,0,WeatherTracker,2013-03-04 11:15:00,
2013-03-04 06:20:00,18.6,13.8,30.01,South,175,0.0,0.0,81,0.00,,,0.00,0,WeatherTracker,2013-03-04 11:20:00,
2013-03-04 06:25:00,18.5,13.7,30.01,South,175,0.0,0.0,81,0.00,,,0.00,0,WeatherTracker,2013-03-04 11:25:00,
2013-03-04 06:31:00,18.5,13.7,30.01,South,175,0.0,0.0,81,0.00,,,0.00,0,WeatherTracker,2013-03-04 11:31:00,
2013-03-04 06:36:00,18.4,13.3,30.01,South,175,0.0,0.0,80,0.00,,,0.00,0,WeatherTracker,2013-03-04 11:36:00,
2013-03-04 06:41:00,18.3,13.2,30.01,South,175,0.0,0.0,80,0.00,,,0.00,0,WeatherTracker,2013-03-04 11:41:00,
2013-03-04 06:46:00,18.3,13.5,30.01,South,175,0.0,0.0,81,0.00,,,0.00,0,WeatherTracker,2013-03-04 11:46:00,
2013-03-04 06:51:00,18.2,13.4,30.01,South,175,0.0,0.0,81,0.00,,,0.00,0,WeatherTracker,2013-03-04 11:51:00,
2013-03-04 06:56:00,18.1,13.3,30.01,South,175,0.0,0.0,81,0.00,,,0.00,0,WeatherTracker,2013-03-04 11:56:00,
2013-03-04 07:01:00,18.0,13.2,30.01,South,175,0.0,0.0,81,0.00,,,0.00,5,WeatherTracker,2013-03-04 12:01:00,
2013-03-04 07:06:00,18.1,13.3,30.01,South,175,0.0,0.0,81,0.00,,,0.00,7,WeatherTracker,2013-03-04 12:06:00,
2013-03-04 07:11:00,18.1,13.5,30.01,South,175,0.0,0.0,82,0.00,,,0.00,9,WeatherTracker,2013-03-04 12:11:00,
2013-03-04 07:16:00,18.1,13.5,30.01,South,175,0.0,0.0,82,0.00,,,0.00,12,WeatherTracker,2013-03-04 12:16:00,
2013-03-04 07:21:00,18.1,13.0,30.01,SE,132,2.0,0.0,80,0.00,,,0.00,18,WeatherTracker,2013-03-04 12:21:00,
2013-03-04 07:26:00,18.4,13.6,30.02,South,189,0.0,0.0,81,0.00,,,0.00,21,WeatherTracker,2013-03-04 12:26:00,
2013-03-04 07:31:00,18.6,13.8,30.02,South,189,0.0,0.0,81,0.00,,,0.00,23,WeatherTracker,2013-03-04 12:31:00,
2013-03-04 07:36:00,18.9,14.1,30.02,South,188,0.0,0.0,81,0.00,,,0.00,30,WeatherTracker,2013-03-04 12:36:00,
2013-03-04 07:41:00,19.3,14.4,30.02,SSW,192,0.0,0.0,81,0.00,,,0.00,26,WeatherTracker,2013-03-04 12:41:00,
2013-03-04 07:46:00,19.7,14.8,30.02,SSW,192,0.0,0.0,81,0.00,,,0.00,26,WeatherTracker,2013-03-04 12:46:00,
2013-03-04 07:51:00,20.4,14.4,30.02,WNW,286,0.0,0.0,77,0.00,,,0.00,30,WeatherTracker,2013-03-04 12:51:00,
2013-03-04 07:56:00,21.3,15.5,30.01,NNW,340,0.0,0.0,78,0.00,,,0.00,30,WeatherTracker,2013-03-04 12:56:00,
2013-03-04 08:02:00,21.9,15.2,30.02,NW,311,1.0,0.0,75,0.00,,,0.00,35,WeatherTracker,2013-03-04 13:02:00,
2013-03-04 08:07:00,23.0,14.4,30.01,NE,51,0.0,0.0,69,0.00,,,0.00,32,WeatherTracker,2013-03-04 13:07:00,
2013-03-04 08:12:00,23.8,14.5,30.02,NW,319,1.0,0.0,67,0.00,,,0.00,33,WeatherTracker,2013-03-04 13:12:00,
2013-03-04 08:17:00,24.5,14.4,30.02,NE,51,1.0,0.0,65,0.00,,,0.00,40,WeatherTracker,2013-03-04 13:17:00,
2013-03-04 08:22:00,25.0,14.6,30.02,NNE,25,0.0,0.0,64,0.00,,,0.00,37,WeatherTracker,2013-03-04 13:22:00,
2013-03-04 08:27:00,25.4,14.6,30.02,NW,326,0.0,0.0,63,0.00,,,0.00,39,WeatherTracker,2013-03-04 13:27:00,
2013-03-04 08:32:00,25.7,14.5,30.03,WNW,300,0.0,0.0,62,0.00,,,0.00,37,WeatherTracker,2013-03-04 13:32:00,
2013-03-04 08:37:00,26.1,14.5,30.03,North,355,0.0,0.0,61,0.00,,,0.00,53,WeatherTracker,2013-03-04 13:37:00,
2013-03-04 08:42:00,26.5,14.5,30.03,NE,34,2.0,0.0,60,0.00,,,0.00,39,WeatherTracker,2013-03-04 13:42:00,
2013-03-04 08:47:00,27.0,14.6,30.03,East,95,0.0,0.0,59,0.00,,,0.00,185,WeatherTracker,2013-03-04 13:47:00,
2013-03-04 08:52:00,27.5,15.1,30.03,South,187,0.0,0.0,59,0.00,,,0.00,253,WeatherTracker,2013-03-04 13:52:00,
2013-03-04 08:57:00,28.1,14.9,30.04,NW,310,4.0,0.0,57,0.00,,,0.00,51,WeatherTracker,2013-03-04 13:57:00,
2013-03-04 09:02:00,28.4,15.1,30.04,North,355,0.0,0.0,57,0.00,,,0.00,120,WeatherTracker,2013-03-04 14:02:00,
2013-03-04 09:07:00,28.7,15.0,30.04,WNW,296,1.0,0.0,56,0.00,,,0.00,155,WeatherTracker,2013-03-04 14:07:00,
2013-03-04 09:12:00,29.2,15.5,30.05,West,279,0.0,0.0,56,0.00,,,0.00,357,WeatherTracker,2013-03-04 14:12:00,
2013-03-04 09:17:00,30.1,15.1,30.05,NW,316,2.0,0.0,53,0.00,,,0.00,345,WeatherTracker,2013-03-04 14:17:00,
2013-03-04 09:22:00,30.2,15.6,30.05,WNW,299,1.0,0.0,54,0.00,,,0.00,230,WeatherTracker,2013-03-04 14:22:00,
2013-03-04 09:27:00,30.7,15.6,30.05,East,82,1.0,0.0,53,0.00,,,0.00,441,WeatherTracker,2013-03-04 14:27:00,
2013-03-04 09:32:00,31.3,16.2,30.05,ESE,114,0.0,0.0,53,0.00,,,0.00,125,WeatherTracker,2013-03-04 14:32:00,
2013-03-04 09:37:00,32.1,16.0,30.05,ESE,114,0.0,0.0,51,0.00,,,0.00,279,WeatherTracker,2013-03-04 14:37:00,
2013-03-04 09:42:00,32.6,16.0,30.05,SSE,153,2.0,0.0,50,0.00,,,0.00,265,WeatherTracker,2013-03-04 14:42:00,
2013-03-04 09:47:00,32.5,15.5,30.05,East,80,2.0,0.0,49,0.00,,,0.00,274,WeatherTracker,2013-03-04 14:47:00,
2013-03-04 09:52:00,32.7,16.1,30.05,SE,137,2.0,0.0,50,0.00,,,0.00,353,WeatherTracker,2013-03-04 14:52:00,
2013-03-04 09:57:00,33.4,15.8,30.05,SE,132,2.0,0.0,48,0.00,,,0.00,209,WeatherTracker,2013-03-04 14:57:00,
2013-03-04 10:02:00,33.7,16.6,30.05,NNE,29,1.0,0.0,49,0.00,,,0.00,237,WeatherTracker,2013-03-04 15:02:00,
2013-03-04 10:07:00,33.6,15.5,30.05,WNW,298,0.0,0.0,47,0.00,,,0.00,439,WeatherTracker,2013-03-04 15:07:00,
2013-03-04 10:12:00,33.9,16.3,30.04,SSE,148,0.0,0.0,48,0.00,,,0.00,288,WeatherTracker,2013-03-04 15:12:00,
2013-03-04 10:18:00,34.4,16.3,30.05,NNE,33,4.0,0.0,47,0.00,,,0.00,338,WeatherTracker,2013-03-04 15:18:00,
2013-03-04 10:23:00,34.4,15.3,30.05,ENE,72,0.0,0.0,45,0.00,,,0.00,554,WeatherTracker,2013-03-04 15:23:00,
2013-03-04 10:28:00,34.4,15.3,30.04,East,96,1.0,0.0,45,0.00,,,0.00,568,WeatherTracker,2013-03-04 15:28:00,
2013-03-04 10:33:00,34.9,15.7,30.04,NNE,26,1.0,0.0,45,0.00,,,0.00,512,WeatherTracker,2013-03-04 15:33:00,
2013-03-04 10:38:00,35.2,16.5,30.05,East,83,0.0,0.0,46,0.00,,,0.00,281,WeatherTracker,2013-03-04 15:38:00,
2013-03-04 10:43:00,35.9,16.7,30.05,ENE,74,0.0,0.0,45,0.00,,,0.00,524,WeatherTracker,2013-03-04 15:43:00,
2013-03-04 10:48:00,36.2,16.4,30.05,ENE,71,2.0,0.0,44,0.00,,,0.00,385,WeatherTracker,2013-03-04 15:48:00,
2013-03-04 10:53:00,36.3,17.0,30.04,ENE,70,0.0,0.0,45,0.00,,,0.00,621,WeatherTracker,2013-03-04 15:53:00,
2013-03-04 10:58:00,36.9,17.0,30.04,South,190,1.0,0.0,44,0.00,,,0.00,462,WeatherTracker,2013-03-04 15:58:00,
2013-03-04 11:03:00,37.5,16.5,30.04,SSE,154,1.0,0.0,42,0.00,,,0.00,642,WeatherTracker,2013-03-04 16:03:00,
2013-03-04 11:08:00,38.2,17.2,30.04,ESE,115,0.0,0.0,42,0.00,,,0.00,475,WeatherTracker,2013-03-04 16:08:00,
2013-03-04 11:13:00,38.8,17.1,30.04,SE,125,0.0,0.0,41,0.00,,,0.00,749,WeatherTracker,2013-03-04 16:13:00,
2013-03-04 11:18:00,39.7,18.0,30.04,SSW,193,0.0,0.0,41,0.00,,,0.00,770,WeatherTracker,2013-03-04 16:18:00,
2013-03-04 11:23:00,40.4,17.4,30.04,ESE,123,0.0,0.0,39,0.00,,,0.00,775,WeatherTracker,2013-03-04 16:23:00,
2013-03-04 11:28:00,40.9,17.9,30.04,North,10,0.0,0.0,39,0.00,,,0.00,784,WeatherTracker,2013-03-04 16:28:00,
2013-03-04 11:33:00,41.3,17.6,30.04,SE,142,1.0,0.0,38,0.00,,,0.00,793,WeatherTracker,2013-03-04 16:33:00,
2013-03-04 11:38:00,41.2,17.5,30.03,ESE,110,1.0,0.0,38,0.00,,,0.00,796,WeatherTracker,2013-03-04 16:38:00,
2013-03-04 11:43:00,41.2,16.3,30.03,NW,312,0.0,0.0,36,0.00,,,0.00,809,WeatherTracker,2013-03-04 16:43:00,
2013-03-04 11:48:00,41.1,16.2,30.03,NW,305,1.0,0.0,36,0.00,,,0.00,802,WeatherTracker,2013-03-04 16:48:00,
2013-03-04 11:53:00,41.1,16.2,30.04,ENE,76,2.0,0.0,36,0.00,,,0.00,809,WeatherTracker,2013-03-04 16:53:00,
2013-03-04 11:58:00,41.3,16.4,30.03,NNW,331,0.0,0.0,36,0.00,,,0.00,810,WeatherTracker,2013-03-04 16:58:00,
2013-03-04 12:03:00,41.2,16.9,30.04,West,259,0.0,0.0,37,0.00,,,0.00,819,WeatherTracker,2013-03-04 17:03:00,
2013-03-04 12:08:00,41.3,16.4,30.04,SE,129,3.0,0.0,36,0.00,,,0.00,821,WeatherTracker,2013-03-04 17:08:00,
2013-03-04 12:13:00,41.6,16.0,30.03,ENE,68,2.0,0.0,35,0.00,,,0.00,823,WeatherTracker,2013-03-04 17:13:00,
2013-03-04 12:19:00,41.7,16.7,30.02,NNE,24,5.0,0.0,36,0.00,,,0.00,747,WeatherTracker,2013-03-04 17:19:00,
2013-03-04 12:24:00,41.9,16.9,30.03,NNE,26,2.0,0.0,36,0.00,,,0.00,824,WeatherTracker,2013-03-04 17:24:00,
2013-03-04 12:29:00,42.2,17.8,30.03,NNW,329,0.0,0.0,37,0.00,,,0.00,826,WeatherTracker,2013-03-04 17:29:00,
2013-03-04 12:34:00,42.7,17.0,30.03,ENE,67,4.0,0.0,35,0.00,,,0.00,823,WeatherTracker,2013-03-04 17:34:00,
2013-03-04 12:39:00,42.8,17.7,30.02,North,11,1.0,0.0,36,0.00,,,0.00,812,WeatherTracker,2013-03-04 17:39:00,
2013-03-04 12:44:00,43.3,17.5,30.02,East,96,2.0,0.0,35,0.00,,,0.00,824,WeatherTracker,2013-03-04 17:44:00,
2013-03-04 12:49:00,43.8,17.3,30.02,South,172,0.0,0.0,34,0.00,,,0.00,817,WeatherTracker,2013-03-04 17:49:00,
2013-03-04 12:54:00,44.8,18.2,30.02,SSE,155,0.0,0.0,34,0.00,,,0.00,796,WeatherTracker,2013-03-04 17:54:00,
2013-03-04 12:59:00,45.6,18.2,30.01,WSW,254,0.0,0.0,33,0.00,,,0.00,659,WeatherTracker,2013-03-04 17:59:00,
2013-03-04 13:04:00,45.6,18.2,30.01,North,360,2.0,0.0,33,0.00,,,0.00,659,WeatherTracker,2013-03-04 18:04:00,
2013-03-04 13:09:00,45.4,18.0,30.01,West,279,3.0,0.0,33,0.00,,,0.00,603,WeatherTracker,2013-03-04 18:09:00,
2013-03-04 13:14:00,45.0,17.6,30.00,NNE,13,4.0,0.0,33,0.00,,,0.00,503,WeatherTracker,2013-03-04 18:14:00,
2013-03-04 13:19:00,45.0,17.6,30.00,ENE,62,3.0,0.0,33,0.00,,,0.00,427,WeatherTracker,2013-03-04 18:19:00,
2013-03-04 13:24:00,44.9,16.8,29.99,NNE,25,1.0,0.0,32,0.00,,,0.00,288,WeatherTracker,2013-03-04 18:24:00,
2013-03-04 13:29:00,45.0,17.6,29.99,North,355,0.0,0.0,33,0.00,,,0.00,480,WeatherTracker,2013-03-04 18:29:00,
2013-03-04 13:31:00,45.0,16.9,29.99,North,5,3.0,0.0,32,0.00,,,0.00,461,WeatherTracker,2013-03-04 18:31:00,
2013-03-04 13:36:00,45.1,17.0,29.99,NNE,14,2.0,0.0,32,0.00,,,0.00,793,WeatherTracker,2013-03-04 18:36:00,
2013-03-04 13:41:00,45.4,18.0,29.98,NNW,336,0.0,0.0,33,0.00,,,0.00,784,WeatherTracker,2013-03-04 18:41:00,
2013-03-04 13:46:00,46.2,18.0,29.98,SSW,211,0.0,0.0,32,0.00,,,0.00,677,WeatherTracker,2013-03-04 18:46:00,
2013-03-04 13:51:00,46.9,18.6,29.98,WNW,292,0.0,0.0,32,0.00,,,0.00,701,WeatherTracker,2013-03-04 18:51:00,
2013-03-04 13:56:00,47.2,18.1,29.98,NNW,327,0.0,0.0,31,0.00,,,0.00,485,WeatherTracker,2013-03-04 18:56:00,
2013-03-04 14:01:00,47.2,18.1,29.97,SE,134,1.0,0.0,31,0.00,,,0.00,606,WeatherTracker,2013-03-04 19:01:00,
2013-03-04 14:06:00,47.4,17.5,29.97,ENE,67,1.0,0.0,30,0.00,,,0.00,605,WeatherTracker,2013-03-04 19:06:00,
2013-03-04 14:11:00,47.7,17.8,29.97,NNE,19,3.0,0.0,30,0.00,,,0.00,717,WeatherTracker,2013-03-04 19:11:00,
2013-03-04 14:16:00,47.6,18.5,29.97,NE,43,1.0,0.0,31,0.00,,,0.00,564,WeatherTracker,2013-03-04 19:16:00,
2013-03-04 14:21:00,47.6,17.7,29.97,ENE,67,2.0,0.0,30,0.00,,,0.00,504,WeatherTracker,2013-03-04 19:21:00,
2013-03-04 14:26:00,47.9,18.7,29.96,NNW,340,0.0,0.0,31,0.00,,,0.00,536,WeatherTracker,2013-03-04 19:26:00,
2013-03-04 14:31:00,48.6,18.6,29.96,WSW,248,0.0,0.0,30,0.00,,,0.00,352,WeatherTracker,2013-03-04 19:31:00,
2013-03-04 14:36:00,49.2,18.3,29.96,ENE,75,0.0,0.0,29,0.00,,,0.00,301,WeatherTracker,2013-03-04 19:36:00,
2013-03-04 14:41:00,49.2,17.5,29.96,NE,47,0.0,0.0,28,0.00,,,0.00,548,WeatherTracker,2013-03-04 19:41:00,
2013-03-04 14:46:00,49.4,18.5,29.96,North,360,0.0,0.0,29,0.00,,,0.00,506,WeatherTracker,2013-03-04 19:46:00,
2013-03-04 14:51:00,49.3,18.4,29.96,East,90,4.0,0.0,29,0.00,,,0.00,67,WeatherTracker,2013-03-04 19:51:00,
2013-03-04 14:56:00,48.8,18.0,29.96,NW,316,0.0,0.0,29,0.00,,,0.00,100,WeatherTracker,2013-03-04 19:56:00,
2013-03-04 15:01:00,48.6,17.8,29.96,NW,305,0.0,0.0,29,0.00,,,0.00,49,WeatherTracker,2013-03-04 20:01:00,
2013-03-04 15:07:00,48.6,18.6,29.95,NW,310,2.0,0.0,30,0.00,,,0.00,49,WeatherTracker,2013-03-04 20:07:00,
2013-03-04 15:12:00,48.7,17.9,29.95,SW,215,0.0,0.0,29,0.00,,,0.00,56,WeatherTracker,2013-03-04 20:12:00,
2013-03-04 15:17:00,49.1,19.8,29.95,SSW,203,2.0,0.0,31,0.00,,,0.00,49,WeatherTracker,2013-03-04 20:17:00,
2013-03-04 15:22:00,49.5,20.1,29.95,SE,126,1.0,0.0,31,0.00,,,0.00,54,WeatherTracker,2013-03-04 20:22:00,
2013-03-04 15:27:00,49.6,20.2,29.95,SSW,206,0.0,0.0,31,0.00,,,0.00,51,WeatherTracker,2013-03-04 20:27:00,
2013-03-04 15:32:00,49.8,20.4,29.95,SSE,167,0.0,0.0,31,0.00,,,0.00,70,WeatherTracker,2013-03-04 20:32:00,
2013-03-04 15:37:00,49.8,20.4,29.95,SSW,211,0.0,0.0,31,0.00,,,0.00,76,WeatherTracker,2013-03-04 20:37:00,
2013-03-04 15:42:00,49.8,20.4,29.94,ENE,65,2.0,0.0,31,0.00,,,0.00,74,WeatherTracker,2013-03-04 20:42:00,
2013-03-04 15:47:00,49.7,20.3,29.95,East,92,0.0,0.0,31,0.00,,,0.00,105,WeatherTracker,2013-03-04 20:47:00,
2013-03-04 15:52:00,49.6,20.2,29.95,East,92,0.0,0.0,31,0.00,,,0.00,47,WeatherTracker,2013-03-04 20:52:00,
2013-03-04 15:57:00,49.6,20.2,29.95,SSW,205,0.0,0.0,31,0.00,,,0.00,105,WeatherTracker,2013-03-04 20:57:00,
2013-03-04 16:02:00,49.5,20.1,29.95,South,175,0.0,0.0,31,0.00,,,0.00,302,WeatherTracker,2013-03-04 21:02:00,
2013-03-04 16:07:00,49.3,20.0,29.95,South,174,0.0,0.0,31,0.00,,,0.00,174,WeatherTracker,2013-03-04 21:07:00,
2013-03-04 16:12:00,49.1,20.5,29.95,ESE,117,3.0,0.0,32,0.00,,,0.00,53,WeatherTracker,2013-03-04 21:12:00,
2013-03-04 16:17:00,48.8,20.3,29.95,ESE,115,1.0,0.0,32,0.00,,,0.00,40,WeatherTracker,2013-03-04 21:17:00,
2013-03-04 16:22:00,48.6,20.8,29.95,SSE,156,0.0,0.0,33,0.00,,,0.00,39,WeatherTracker,2013-03-04 21:22:00,
2013-03-04 16:28:00,48.4,20.6,29.95,South,190,0.0,0.0,33,0.00,,,0.00,35,WeatherTracker,2013-03-04 21:28:00,
2013-03-04 16:33:00,48.1,20.4,29.95,South,191,1.0,0.0,33,0.00,,,0.00,33,WeatherTracker,2013-03-04 21:33:00,
2013-03-04 16:38:00,47.8,20.1,29.95,SSW,207,1.0,0.0,33,0.00,,,0.00,33,WeatherTracker,2013-03-04 21:38:00,
2013-03-04 16:43:00,47.6,21.3,29.95,SSE,163,0.0,0.0,35,0.00,,,0.00,32,WeatherTracker,2013-03-04 21:43:00,
2013-03-04 16:48:00,47.4,21.1,29.95,SSW,196,0.0,0.0,35,0.00,,,0.00,28,WeatherTracker,2013-03-04 21:48:00,
2013-03-04 16:53:00,47.2,20.3,29.95,SE,143,0.0,0.0,34,0.00,,,0.00,26,WeatherTracker,2013-03-04 21:53:00,
2013-03-04 16:58:00,47.0,20.8,29.95,SSW,193,0.0,0.0,35,0.00,,,0.00,28,WeatherTracker,2013-03-04 21:58:00,
2013-03-04 17:03:00,46.8,21.3,29.95,SSW,192,0.0,0.0,36,0.00,,,0.00,33,WeatherTracker,2013-03-04 22:03:00,
2013-03-04 17:08:00,46.6,21.7,29.95,SE,136,0.0,0.0,37,0.00,,,0.00,33,WeatherTracker,2013-03-04 22:08:00,
2013-03-04 17:13:00,46.5,20.3,29.95,SE,142,2.0,0.0,35,0.00,,,0.00,32,WeatherTracker,2013-03-04 22:13:00,
2013-03-04 17:18:00,46.3,20.8,29.96,SSE,148,0.0,0.0,36,0.00,,,0.00,32,WeatherTracker,2013-03-04 22:18:00,
2013-03-04 17:23:00,46.2,22.0,29.96,SSE,148,0.0,0.0,38,0.00,,,0.00,30,WeatherTracker,2013-03-04 22:23:00,
2013-03-04 17:28:00,45.9,21.7,29.95,SE,146,0.0,0.0,38,0.00,,,0.00,39,WeatherTracker,2013-03-04 22:28:00,
2013-03-04 17:33:00,45.7,21.6,29.96,SE,145,0.0,0.0,38,0.00,,,0.00,35,WeatherTracker,2013-03-04 22:33:00,
2013-03-04 17:38:00,45.6,20.8,29.96,SE,145,0.0,0.0,37,0.00,,,0.00,33,WeatherTracker,2013-03-04 22:38:00,
2013-03-04 17:43:00,45.5,20.8,29.96,SE,145,0.0,0.0,37,0.00,,,0.00,37,WeatherTracker,2013-03-04 22:43:00,
2013-03-04 17:48:00,45.5,21.4,29.96,SE,146,0.0,0.0,38,0.00,,,0.00,39,WeatherTracker,2013-03-04 22:48:00,
2013-03-04 17:53:00,45.5,21.4,29.96,SE,146,0.0,0.0,38,0.00,,,0.00,30,WeatherTracker,2013-03-04 22:53:00,
2013-03-04 17:58:00,45.5,22.6,29.96,SE,146,0.0,0.0,40,0.00,,,0.00,25,WeatherTracker,2013-03-04 22:58:00,
2013-03-04 18:03:00,45.4,22.5,29.96,SE,146,0.0,0.0,40,0.00,,,0.00,16,WeatherTracker,2013-03-04 23:03:00,
2013-03-04 18:08:00,45.2,22.3,29.96,SE,146,0.0,0.0,40,0.00,,,0.00,12,WeatherTracker,2013-03-04 23:08:00,
2013-03-04 18:13:00,45.0,22.1,29.96,SE,146,0.0,0.0,40,0.00,,,0.00,9,WeatherTracker,2013-03-04 23:13:00,
2013-03-04 18:19:00,44.9,22.6,29.96,SE,146,0.0,0.0,41,0.00,,,0.00,7,WeatherTracker,2013-03-04 23:19:00,
2013-03-04 18:24:00,44.7,22.5,29.97,SE,145,1.0,0.0,41,0.00,,,0.00,5,WeatherTracker,2013-03-04 23:24:00,
2013-03-04 18:29:00,44.2,22.0,29.97,SW,231,0.0,0.0,41,0.00,,,0.00,0,WeatherTracker,2013-03-04 23:29:00,
2013-03-04 18:34:00,44.0,23.0,29.97,SW,231,0.0,0.0,43,0.00,,,0.00,0,WeatherTracker,2013-03-04 23:34:00,
2013-03-04 18:39:00,43.6,23.7,29.97,WSW,243,0.0,0.0,45,0.00,,,0.00,0,WeatherTracker,2013-03-04 23:39:00,
2013-03-04 18:44:00,43.2,23.3,29.96,WSW,251,0.0,0.0,45,0.00,,,0.00,0,WeatherTracker,2013-03-04 23:44:00,
2013-03-04 18:49:00,42.7,22.9,29.97,WSW,251,0.0,0.0,45,0.00,,,0.00,0,WeatherTracker,2013-03-04 23:49:00,
2013-03-04 18:54:00,42.2,23.4,29.96,WSW,250,0.0,0.0,47,0.00,,,0.00,0,WeatherTracker,2013-03-04 23:54:00,
2013-03-04 18:59:00,41.8,23.1,29.96,WSW,251,0.0,0.0,47,0.00,,,0.00,0,WeatherTracker,2013-03-04 23:59:00,
2013-03-04 19:04:00,41.3,23.1,29.96,WSW,250,0.0,0.0,48,0.00,,,0.00,0,WeatherTracker,2013-03-05 00:04:00,
2013-03-04 19:09:00,40.7,22.6,29.96,WSW,251,0.0,0.0,48,0.00,,,0.00,0,WeatherTracker,2013-03-05 00:09:00,
2013-03-04 19:14:00,40.2,23.1,29.97,WSW,251,0.0,0.0,50,0.00,,,0.00,0,WeatherTracker,2013-03-05 00:14:00,
2013-03-04 19:19:00,39.9,23.3,29.97,WSW,251,0.0,0.0,51,0.00,,,0.00,0,WeatherTracker,2013-03-05 00:19:00,
2013-03-04 19:24:00,39.6,22.5,29.97,WSW,251,0.0,0.0,50,0.00,,,0.00,0,WeatherTracker,2013-03-05 00:24:00,
2013-03-04 19:29:00,39.5,22.9,29.98,WSW,251,0.0,0.0,51,0.00,,,0.00,0,WeatherTracker,2013-03-05 00:29:00,
2013-03-04 19:34:00,39.3,23.6,29.97,WSW,251,0.0,0.0,53,0.00,,,0.00,0,WeatherTracker,2013-03-05 00:34:00,
2013-03-04 19:39:00,39.1,23.0,29.97,WSW,251,0.0,0.0,52,0.00,,,0.00,0,WeatherTracker,2013-03-05 00:39:00,
2013-03-04 19:44:00,38.9,23.2,29.97,WSW,250,0.0,0.0,53,0.00,,,0.00,0,WeatherTracker,2013-03-05 00:44:00,
2013-03-04 19:49:00,38.7,23.1,29.97,WSW,250,2.0,0.0,53,0.00,,,0.00,0,WeatherTracker,2013-03-05 00:49:00,
2013-03-04 19:54:00,38.6,23.4,29.97,WSW,250,0.0,0.0,54,0.00,,,0.00,0,WeatherTracker,2013-03-05 00:54:00,
2013-03-04 19:59:00,38.6,23.0,29.97,WSW,251,0.0,0.0,53,0.00,,,0.00,0,WeatherTracker,2013-03-05 00:59:00,
2013-03-04 20:04:00,38.7,22.1,29.96,WSW,250,0.0,0.0,51,0.00,,,0.00,0,WeatherTracker,2013-03-05 01:04:00,
2013-03-04 20:09:00,39.0,22.9,29.96,WSW,250,0.0,0.0,52,0.00,,,0.00,0,WeatherTracker,2013-03-05 01:09:00,
2013-03-04 20:14:00,39.1,23.4,29.96,WSW,250,0.0,0.0,53,0.00,,,0.00,0,WeatherTracker,2013-03-05 01:14:00,
2013-03-04 20:20:00,39.1,23.4,29.96,WSW,250,0.0,0.0,53,0.00,,,0.00,0,WeatherTracker,2013-03-05 01:20:00,
2013-03-04 20:25:00,39.0,22.9,29.97,WSW,251,0.0,0.0,52,0.00,,,0.00,0,WeatherTracker,2013-03-05 01:25:00,
2013-03-04 20:30:00,38.9,23.2,29.97,WSW,251,0.0,0.0,53,0.00,,,0.00,0,WeatherTracker,2013-03-05 01:30:00,
2013-03-04 20:35:00,38.8,22.7,29.96,SW,227,0.0,0.0,52,0.00,,,0.00,0,WeatherTracker,2013-03-05 01:35:00,
2013-03-04 20:40:00,38.7,22.6,29.96,SW,226,0.0,0.0,52,0.00,,,0.00,0,WeatherTracker,2013-03-05 01:40:00,
2013-03-04 20:45:00,38.7,23.1,29.96,SW,226,0.0,0.0,53,0.00,,,0.00,0,WeatherTracker,2013-03-05 01:45:00,
2013-03-04 20:50:00,38.8,24.0,29.96,SW,226,0.0,0.0,55,0.00,,,0.00,0,WeatherTracker,2013-03-05 01:50:00,
2013-03-04 20:55:00,38.9,24.6,29.96,SW,225,0.0,0.0,56,0.00,,,0.00,0,WeatherTracker,2013-03-05 01:55:00,
2013-03-04 21:00:00,39.0,24.2,29.96,SW,222,0.0,0.0,55,0.00,,,0.00,0,WeatherTracker,2013-03-05 02:00:00,
2013-03-04 21:06:00,39.0,24.7,29.96,SW,223,0.0,0.0,56,0.00,,,0.00,0,WeatherTracker,2013-03-05 02:06:00,
2013-03-04 21:11:00,39.0,23.8,29.96,SW,222,0.0,0.0,54,0.00,,,0.00,0,WeatherTracker,2013-03-05 02:11:00,
2013-03-04 21:16:00,39.1,24.7,29.96,SW,223,0.0,0.0,56,0.00,,,0.00,0,WeatherTracker,2013-03-05 02:16:00,
2013-03-04 21:21:00,39.3,24.9,29.96,SW,222,0.0,0.0,56,0.00,,,0.00,0,WeatherTracker,2013-03-05 02:21:00,
2013-03-04 21:26:00,39.7,25.7,29.97,SW,223,1.0,0.0,57,0.00,,,0.00,0,WeatherTracker,2013-03-05 02:26:00,
2013-03-04 21:31:00,39.8,25.4,29.97,SW,222,0.0,0.0,56,0.00,,,0.00,0,WeatherTracker,2013-03-05 02:31:00,
2013-03-04 21:36:00,39.8,25.0,29.97,SW,222,0.0,0.0,55,0.00,,,0.00,0,WeatherTracker,2013-03-05 02:36:00,
2013-03-04 21:41:00,39.9,25.1,29.97,SW,222,0.0,0.0,55,0.00,,,0.00,0,WeatherTracker,2013-03-05 02:41:00,
2013-03-04 21:46:00,40.0,25.2,29.97,SW,223,0.0,0.0,55,0.00,,,0.00,0,WeatherTracker,2013-03-05 02:46:00,
2013-03-04 21:51:00,40.2,25.3,29.97,SW,222,0.0,0.0,55,0.00,,,0.00,0,WeatherTracker,2013-03-05 02:51:00,
2013-03-04 21:56:00,40.3,25.9,29.97,SW,223,0.0,0.0,56,0.00,,,0.00,0,WeatherTracker,2013-03-05 02:56:00,
2013-03-04 22:01:00,40.3,25.9,29.97,SW,223,0.0,0.0,56,0.00,,,0.00,0,WeatherTracker,2013-03-05 03:01:00,
2013-03-04 22:06:00,40.2,25.8,29.97,SW,223,0.0,0.0,56,0.00,,,0.00,0,WeatherTracker,2013-03-05 03:06:00,
2013-03-04 22:11:00,40.0,26.0,29.97,SW,223,0.0,0.0,57,0.00,,,0.00,0,WeatherTracker,2013-03-05 03:11:00,
2013-03-04 22:16:00,39.8,25.8,29.96,SW,223,0.0,0.0,57,0.00,,,0.00,0,WeatherTracker,2013-03-05 03:16:00,
2013-03-04 22:21:00,39.4,25.4,29.96,SW,223,0.0,0.0,57,0.00,,,0.00,0,WeatherTracker,2013-03-05 03:21:00,
2013-03-04 22:26:00,39.2,25.7,29.96,SW,223,0.0,0.0,58,0.00,,,0.00,0,WeatherTracker,2013-03-05 03:26:00,
2013-03-04 22:32:00,39.1,25.6,29.96,SW,223,0.0,0.0,58,0.00,,,0.00,0,WeatherTracker,2013-03-05 03:32:00,
2013-03-04 22:37:00,39.1,26.0,29.96,SW,223,0.0,0.0,59,0.00,,,0.00,0,WeatherTracker,2013-03-05 03:37:00,
2013-03-04 22:42:00,39.1,25.6,29.96,SW,222,0.0,0.0,58,0.00,,,0.00,0,WeatherTracker,2013-03-05 03:42:00,
2013-03-04 22:47:00,39.2,26.1,29.96,SW,222,0.0,0.0,59,0.00,,,0.00,0,WeatherTracker,2013-03-05 03:47:00,
2013-03-04 22:52:00,39.2,26.1,29.96,SW,223,0.0,0.0,59,0.00,,,0.00,0,WeatherTracker,2013-03-05 03:52:00,
2013-03-04 22:57:00,39.1,26.0,29.95,SW,223,0.0,0.0,59,0.00,,,0.00,0,WeatherTracker,2013-03-05 03:57:00,
2013-03-04 23:02:00,39.0,26.3,29.95,SW,223,0.0,0.0,60,0.00,,,0.00,0,WeatherTracker,2013-03-05 04:02:00,
2013-03-04 23:07:00,38.9,26.6,29.95,SW,223,0.0,0.0,61,0.00,,,0.00,0,WeatherTracker,2013-03-05 04:07:00,
2013-03-04 23:12:00,38.7,26.4,29.94,SW,223,0.0,0.0,61,0.00,,,0.00,0,WeatherTracker,2013-03-05 04:12:00,
2013-03-04 23:17:00,38.6,26.3,29.94,SW,223,0.0,0.0,61,0.00,,,0.00,0,WeatherTracker,2013-03-05 04:17:00,
2013-03-04 23:22:00,38.7,26.0,29.94,SW,223,0.0,0.0,60,0.00,,,0.00,0,WeatherTracker,2013-03-05 04:22:00,
2013-03-04 23:27:00,38.9,26.2,29.94,South,171,1.0,0.0,60,0.00,,,0.00,0,WeatherTracker,2013-03-05 04:27:00,
2013-03-04 23:32:00,39.4,26.7,29.94,South,171,0.0,0.0,60,0.00,,,0.00,0,WeatherTracker,2013-03-05 04:32:00,
2013-03-04 23:37:00,39.8,26.2,29.94,SSW,192,0.0,0.0,58,0.00,,,0.00,0,WeatherTracker,2013-03-05 04:37:00,
2013-03-04 23:42:00,40.1,26.5,29.94,South,189,0.0,0.0,58,0.00,,,0.00,0,WeatherTracker,2013-03-05 04:42:00,
2013-03-04 23:47:00,40.4,26.8,29.94,South,189,0.0,0.0,58,0.00,,,0.00,0,WeatherTracker,2013-03-05 04:47:00,
2013-03-04 23:52:00,40.5,26.9,29.95,South,188,0.0,0.0,58,0.00,,,0.00,0,WeatherTracker,2013-03-05 04:52:00,
2013-03-04 23:57:00,40.6,27.0,29.95,South,189,0.0,0.0,58,0.00,,,0.00,0,WeatherTracker,2013-03-05 04:57:00,